Weather Roundup
Issued by NWS Springfield, MO

Home | Current Version | Previous Version | Text Only | Print | Product List | Glossary On
Versions: 1 2 3 4 5 6 7 8 9 10 11 12 13 14 15 16 17 18 19 20 21 22 23 24 25 26 27 28 29 30 31 32 33 34 35 36 37 38 39 40 41 42 43 44 45 46 47 48 49 50
000
NZUS99 KSGF 290757
HRRSGF

HOURLY WEATHER
NATIONAL WEATHER SERVICE SPRINGFIELD MO
300 AM CDT SAT APR 29 2017

......SGF CWA......

CITY           SKY/WX    TMP DP  RH WIND       PRES   REMARKS
SPRINGFIELD    TSTM      61  60  97 N13       29.81R
JOPLIN         CLOUDY    61  59  93 N14G21    29.76R
WEST PLAINS    CLOUDY    64  61  90 NE8       29.78F
ROLLA          RAIN      58  57  97 N26G38    29.72F FOG
OSAGE BEACH    TSTM      57  57 100 N7G16     29.85F

......SURROUNDING SGF CWA......

CITY           SKY/WX    TMP DP  RH WIND       PRES   REMARKS
CHANUTE        CLOUDY    51  50  96 N15G26    29.82F FOG
PARSONS        CLOUDY    54  53  97 N14G21    29.78R FOG
COFFEYVILLE    TSTM      57  56  96 NE12      29.76R FOG
EMPORIA        CLOUDY    44  44 100 NE15      29.84R FOG
ROGERS AR      TSTM      63  61  94 N12       29.70R
HARRISON AR    CLOUDY    65  65 100 N5        29.72F FOG

......KANSAS AND MISSOURI......

CITY           SKY/WX    TMP DP  RH WIND       PRES   REMARKS
KANSAS CTY INT FOG       44  43  96 NE20      29.89F VSB 1
SEDALIA        FOG       52  52 100 N10       29.88F VSB 3/4
ST JOSEPH      CLOUDY    45  44  97 NE13      29.93F
ST LOUIS       TSTM      59  56  89 NE3       29.88F FOG
WICHITA        CLOUDY    46  43  89 N22G35    29.79F
TOPEKA         CLOUDY    46  45  96 NE13      29.91R
OLATHE         CLOUDY    44  44 100 NE12G22   29.90S FOG

......TENNESSEE......

CITY           SKY/WX    TMP DP  RH WIND       PRES   REMARKS
MEMPHIS        NOT AVBL
NASHVILLE      MOCLDY    77  68  73 S12       29.94R

......ARKANSAS.......

CITY           SKY/WX    TMP DP  RH WIND       PRES   REMARKS
FAYETTEVILLE   CLOUDY    66  65  96 CALM      29.68F
FT SMITH       CLOUDY    77  67  71 S8        29.62F
LITTLE ROCK    CLOUDY    77  72  84 S13       29.72S

......OKLAHOMA.......

CITY           SKY/WX    TMP DP  RH WIND       PRES   REMARKS
TULSA          LGT RAIN  63  61  93 NE12G21   29.63F
PONCA CITY     LGT RAIN  54  51  90 NE22G30   29.69S
MCALESTER      PTCLDY    77  70  79 S10G23    29.57F
OKLAHOMA CITY  LGT RAIN  62  58  86 N20G30    29.56R

......IOWA............

CITY           SKY/WX    TMP DP  RH WIND       PRES   REMARKS
DES MOINES     NOT AVBL
QUAD CITIES    CLOUDY    47  42  83 NE10      29.98F

......ILLINOIS........

CITY           SKY/WX    TMP DP  RH WIND       PRES   REMARKS
QUINCY         FOG       51  51 100 N13       29.92R VSB 3/4
CHICAGO        CLOUDY    46  39  76 NE13      30.06R




USA.gov is the U.S. government's official web portal to all federal, state and local government web resources and services.